Year,Month,Day,Hour,Minute,Value (Times are PST for temperature in C)
2013,07,15,00,00,18.20
2013,07,15,00,01,18.20
2013,07,15,00,02,18.10
2013,07,15,00,03,18.10
2013,07,15,00,04,18.10
2013,07,15,00,05,18.00
2013,07,15,00,06,18.00
2013,07,15,00,07,17.90
2013,07,15,00,08,17.90
2013,07,15,00,09,17.90
2013,07,15,00,10,17.80
2013,07,15,00,11,17.80
2013,07,15,00,12,17.80
2013,07,15,00,13,17.80
2013,07,15,00,14,17.70
2013,07,15,00,15,17.70
2013,07,15,00,16,17.70
2013,07,15,00,17,17.60
2013,07,15,00,18,17.60
2013,07,15,00,19,17.50
2013,07,15,00,20,17.40
2013,07,15,00,21,17.40
2013,07,15,00,22,17.40
2013,07,15,00,23,17.30
2013,07,15,00,24,17.30
2013,07,15,00,25,17.30
2013,07,15,00,26,17.30
2013,07,15,00,27,17.30
2013,07,15,00,28,17.20
2013,07,15,00,29,17.20
2013,07,15,00,30,17.30
2013,07,15,00,31,17.30
2013,07,15,00,32,17.30
2013,07,15,00,33,17.30
2013,07,15,00,34,17.30
2013,07,15,00,35,17.30
2013,07,15,00,36,17.20
2013,07,15,00,37,17.20
2013,07,15,00,38,17.20
2013,07,15,00,39,17.10
2013,07,15,00,40,17.10
2013,07,15,00,41,17.00
2013,07,15,00,42,17.00
2013,07,15,00,43,16.90
2013,07,15,00,44,16.90
2013,07,15,00,45,16.90
2013,07,15,00,46,16.90
2013,07,15,00,47,16.90
2013,07,15,00,48,16.80
2013,07,15,00,49,16.90
2013,07,15,00,50,16.90
2013,07,15,00,51,16.90
2013,07,15,00,52,16.90
2013,07,15,00,53,16.90
2013,07,15,00,54,16.90
2013,07,15,00,55,16.90
2013,07,15,00,56,16.90
2013,07,15,00,57,16.90
2013,07,15,00,58,16.90
2013,07,15,00,59,16.90
2013,07,15,01,00,16.90
2013,07,15,01,01,16.90
2013,07,15,01,02,16.90
2013,07,15,01,03,16.90
2013,07,15,01,04,16.90
2013,07,15,01,05,16.90
2013,07,15,01,06,16.90
2013,07,15,01,07,16.90
2013,07,15,01,08,16.90
2013,07,15,01,09,16.90
2013,07,15,01,10,16.90
2013,07,15,01,11,16.90
2013,07,15,01,12,16.90
2013,07,15,01,13,16.90
2013,07,15,01,14,16.90
2013,07,15,01,15,16.90
2013,07,15,01,16,17.00
2013,07,15,01,17,17.00
2013,07,15,01,18,17.00
2013,07,15,01,19,17.10
2013,07,15,01,20,17.10
2013,07,15,01,21,17.10
2013,07,15,01,22,17.10
2013,07,15,01,23,17.10
2013,07,15,01,24,17.10
2013,07,15,01,25,17.10
2013,07,15,01,26,17.10
2013,07,15,01,27,17.10
2013,07,15,01,28,17.10
2013,07,15,01,29,17.10
2013,07,15,01,30,17.10
2013,07,15,01,31,17.00
2013,07,15,01,32,17.00
2013,07,15,01,33,17.00
2013,07,15,01,34,17.00
2013,07,15,01,35,17.00
2013,07,15,01,36,16.90
2013,07,15,01,37,16.90
2013,07,15,01,38,16.90
2013,07,15,01,39,16.90
2013,07,15,01,40,16.90
2013,07,15,01,41,16.90
2013,07,15,01,42,16.90
2013,07,15,01,43,16.90
2013,07,15,01,44,16.90
2013,07,15,01,45,16.90
2013,07,15,01,46,16.90
2013,07,15,01,47,16.80
2013,07,15,01,48,16.80
2013,07,15,01,49,16.80
2013,07,15,01,50,16.80
2013,07,15,01,51,16.70
2013,07,15,01,52,16.70
2013,07,15,01,53,16.70
2013,07,15,01,54,16.80
2013,07,15,01,55,16.80
2013,07,15,01,56,16.80
2013,07,15,01,57,16.80
2013,07,15,01,58,16.80
2013,07,15,01,59,16.80
2013,07,15,02,00,16.80
2013,07,15,02,01,16.80
2013,07,15,02,02,16.80
2013,07,15,02,03,16.80
2013,07,15,02,04,16.80
2013,07,15,02,05,16.80
2013,07,15,02,06,16.80
2013,07,15,02,07,16.80
2013,07,15,02,08,16.80
2013,07,15,02,09,16.80
2013,07,15,02,10,16.80
2013,07,15,02,11,16.80
2013,07,15,02,12,16.80
2013,07,15,02,13,16.70
2013,07,15,02,14,16.70
2013,07,15,02,15,16.70
2013,07,15,02,16,16.70
2013,07,15,02,17,16.70
2013,07,15,02,18,16.70
2013,07,15,02,19,16.70
2013,07,15,02,20,16.70
2013,07,15,02,21,16.60
2013,07,15,02,22,16.60
2013,07,15,02,23,16.60
2013,07,15,02,24,16.60
2013,07,15,02,25,16.60
2013,07,15,02,26,16.60
2013,07,15,02,27,16.60
2013,07,15,02,28,16.60
2013,07,15,02,29,16.60
2013,07,15,02,30,16.60
2013,07,15,02,31,16.60
2013,07,15,02,32,16.50
2013,07,15,02,33,16.50
2013,07,15,02,34,16.50
2013,07,15,02,35,16.50
2013,07,15,02,36,16.50
2013,07,15,02,37,16.40
2013,07,15,02,38,16.40
2013,07,15,02,39,16.40
2013,07,15,02,40,16.40
2013,07,15,02,41,16.40
2013,07,15,02,42,16.40
2013,07,15,02,43,16.40
2013,07,15,02,44,16.40
2013,07,15,02,45,16.40
2013,07,15,02,46,16.40
2013,07,15,02,47,16.40
2013,07,15,02,48,16.40
2013,07,15,02,49,16.40
2013,07,15,02,50,16.40
2013,07,15,02,51,16.40
2013,07,15,02,52,16.40
2013,07,15,02,53,16.40
2013,07,15,02,54,16.40
2013,07,15,02,55,16.30
2013,07,15,02,56,16.40
2013,07,15,02,57,16.30
2013,07,15,02,58,16.30
2013,07,15,02,59,16.30
2013,07,15,03,00,16.30
2013,07,15,03,01,16.30
2013,07,15,03,02,16.30
2013,07,15,03,03,16.30
2013,07,15,03,04,16.30
2013,07,15,03,05,16.30
2013,07,15,03,06,16.30
2013,07,15,03,07,16.30
2013,07,15,03,08,16.20
2013,07,15,03,09,16.20
2013,07,15,03,10,16.20
2013,07,15,03,11,16.20
2013,07,15,03,12,16.20
2013,07,15,03,13,16.20
2013,07,15,03,14,16.20
2013,07,15,03,15,16.20
2013,07,15,03,16,16.20
2013,07,15,03,17,16.10
2013,07,15,03,18,16.10
2013,07,15,03,19,16.10
2013,07,15,03,20,16.10
2013,07,15,03,21,16.10
2013,07,15,03,22,16.10
2013,07,15,03,23,16.10
2013,07,15,03,24,16.10
2013,07,15,03,25,16.10
2013,07,15,03,26,16.10
2013,07,15,03,27,16.10
2013,07,15,03,28,16.10
2013,07,15,03,29,16.10
2013,07,15,03,30,16.10
2013,07,15,03,31,16.10
2013,07,15,03,32,16.00
2013,07,15,03,33,16.00
2013,07,15,03,34,16.00
2013,07,15,03,35,16.00
2013,07,15,03,36,16.00
2013,07,15,03,37,15.90
2013,07,15,03,38,15.90
2013,07,15,03,39,15.90
2013,07,15,03,40,15.90
2013,07,15,03,41,15.90
2013,07,15,03,42,15.90
2013,07,15,03,43,15.80
2013,07,15,03,44,15.80
2013,07,15,03,45,15.80
2013,07,15,03,46,15.80
2013,07,15,03,47,15.80
2013,07,15,03,48,15.80
2013,07,15,03,49,15.80
2013,07,15,03,50,15.80
2013,07,15,03,51,15.80
2013,07,15,03,52,15.80
2013,07,15,03,53,15.80
2013,07,15,03,54,15.70
2013,07,15,03,55,15.70
2013,07,15,03,56,15.70
2013,07,15,03,57,15.70
2013,07,15,03,58,15.70
2013,07,15,03,59,15.70
2013,07,15,04,00,15.60
2013,07,15,04,01,15.60
2013,07,15,04,02,15.60
2013,07,15,04,03,15.60
2013,07,15,04,04,15.60
2013,07,15,04,05,15.50
2013,07,15,04,06,15.50
2013,07,15,04,07,15.50
2013,07,15,04,08,15.50
2013,07,15,04,09,15.40
2013,07,15,04,10,15.40
2013,07,15,04,11,15.40
2013,07,15,04,12,15.40
2013,07,15,04,13,15.40
2013,07,15,04,14,15.40
2013,07,15,04,15,15.40
2013,07,15,04,16,15.40
2013,07,15,04,17,15.40
2013,07,15,04,18,15.40
2013,07,15,04,19,15.40
2013,07,15,04,20,15.40
2013,07,15,04,21,15.40
2013,07,15,04,22,15.40
2013,07,15,04,23,15.40
2013,07,15,04,24,15.40
2013,07,15,04,25,15.40
2013,07,15,04,26,15.40
2013,07,15,04,27,15.40
2013,07,15,04,28,15.40
2013,07,15,04,29,15.40
2013,07,15,04,30,15.40
2013,07,15,04,31,15.40
2013,07,15,04,32,15.40
2013,07,15,04,33,15.40
2013,07,15,04,34,15.40
2013,07,15,04,35,15.40
2013,07,15,04,36,15.40
2013,07,15,04,37,15.40
2013,07,15,04,38,15.40
2013,07,15,04,39,15.40
2013,07,15,04,40,15.40
2013,07,15,04,41,15.40
2013,07,15,04,42,15.30
2013,07,15,04,43,15.30
2013,07,15,04,44,15.30
2013,07,15,04,45,15.30
2013,07,15,04,46,15.30
2013,07,15,04,47,15.30
2013,07,15,04,48,15.30
2013,07,15,04,49,15.30
2013,07,15,04,50,15.30
2013,07,15,04,51,15.30
2013,07,15,04,52,15.30
2013,07,15,04,53,15.30
2013,07,15,04,54,15.30
2013,07,15,04,55,15.20
2013,07,15,04,56,15.20
2013,07,15,04,57,15.30
2013,07,15,04,58,15.30
2013,07,15,04,59,15.20
2013,07,15,05,00,15.30
2013,07,15,05,01,15.20
2013,07,15,05,02,15.20
2013,07,15,05,03,15.20
2013,07,15,05,04,15.20
2013,07,15,05,05,15.20
2013,07,15,05,06,15.20
2013,07,15,05,07,15.20
2013,07,15,05,08,15.20
2013,07,15,05,09,15.20
2013,07,15,05,10,15.20
2013,07,15,05,11,15.20
2013,07,15,05,12,15.20
2013,07,15,05,13,15.20
2013,07,15,05,14,15.20
2013,07,15,05,15,15.10
2013,07,15,05,16,15.10
2013,07,15,05,17,15.10
2013,07,15,05,18,15.00
2013,07,15,05,19,15.00
2013,07,15,05,20,15.00
2013,07,15,05,21,15.00
2013,07,15,05,22,15.00
2013,07,15,05,23,15.00
2013,07,15,05,24,15.00
2013,07,15,05,25,15.00
2013,07,15,05,26,15.00
2013,07,15,05,27,15.00
2013,07,15,05,28,15.00
2013,07,15,05,29,15.00
2013,07,15,05,30,15.00
2013,07,15,05,31,15.00
2013,07,15,05,32,15.00
2013,07,15,05,33,14.90
2013,07,15,05,34,14.90
2013,07,15,05,35,14.90
2013,07,15,05,36,14.90
2013,07,15,05,37,14.90
2013,07,15,05,38,14.90
2013,07,15,05,39,14.90
2013,07,15,05,40,14.90
2013,07,15,05,41,14.90
2013,07,15,05,42,14.90
2013,07,15,05,43,14.90
2013,07,15,05,44,14.90
2013,07,15,05,45,14.90
2013,07,15,05,46,14.90
2013,07,15,05,47,14.90
2013,07,15,05,48,14.90
2013,07,15,05,49,15.00
2013,07,15,05,50,14.90
2013,07,15,05,51,14.90
2013,07,15,05,52,14.90
2013,07,15,05,53,14.90
2013,07,15,05,54,14.80
2013,07,15,05,55,14.80
2013,07,15,05,56,14.80
2013,07,15,05,57,14.80
2013,07,15,05,58,14.80
2013,07,15,05,59,14.80
2013,07,15,06,00,14.70
2013,07,15,06,01,14.70
2013,07,15,06,02,14.70
2013,07,15,06,03,14.70
2013,07,15,06,04,14.70
2013,07,15,06,05,14.70
2013,07,15,06,06,14.80
2013,07,15,06,07,14.80
2013,07,15,06,08,14.80
2013,07,15,06,09,14.80
2013,07,15,06,10,14.90
2013,07,15,06,11,14.90
2013,07,15,06,12,14.90
2013,07,15,06,13,15.00
2013,07,15,06,14,15.00
2013,07,15,06,15,15.00
2013,07,15,06,16,15.00
2013,07,15,06,17,15.00
2013,07,15,06,18,15.00
2013,07,15,06,19,15.00
2013,07,15,06,20,15.00
2013,07,15,06,21,15.00
2013,07,15,06,22,15.00
2013,07,15,06,23,15.10
2013,07,15,06,24,15.20
2013,07,15,06,25,15.20
2013,07,15,06,26,15.30
2013,07,15,06,27,15.30
2013,07,15,06,28,15.30
2013,07,15,06,29,15.40
2013,07,15,06,30,15.50
2013,07,15,06,31,15.50
2013,07,15,06,32,15.60
2013,07,15,06,33,15.60
2013,07,15,06,34,15.70
2013,07,15,06,35,15.80
2013,07,15,06,36,15.80
2013,07,15,06,37,15.80
2013,07,15,06,38,15.90
2013,07,15,06,39,15.90
2013,07,15,06,40,16.00
2013,07,15,06,41,16.00
2013,07,15,06,42,16.10
2013,07,15,06,43,16.10
2013,07,15,06,44,16.20
2013,07,15,06,45,16.20
2013,07,15,06,46,16.20
2013,07,15,06,47,16.30
2013,07,15,06,48,16.30
2013,07,15,06,49,16.30
2013,07,15,06,50,16.40
2013,07,15,06,51,16.40
2013,07,15,06,52,16.40
2013,07,15,06,53,16.40
2013,07,15,06,54,16.50
2013,07,15,06,55,16.50
2013,07,15,06,56,16.60
2013,07,15,06,57,16.60
2013,07,15,06,58,16.70
2013,07,15,06,59,16.70
2013,07,15,07,00,16.70
2013,07,15,07,01,16.70
2013,07,15,07,02,16.70
2013,07,15,07,03,16.80
2013,07,15,07,04,16.80
2013,07,15,07,05,16.80
2013,07,15,07,06,16.80
2013,07,15,07,07,16.80
2013,07,15,07,08,16.80
2013,07,15,07,09,16.80
2013,07,15,07,10,16.80
2013,07,15,07,11,16.80
2013,07,15,07,12,16.80
2013,07,15,07,13,16.90
2013,07,15,07,14,16.90
2013,07,15,07,15,16.90
2013,07,15,07,16,16.90
2013,07,15,07,17,16.90
2013,07,15,07,18,16.90
2013,07,15,07,19,17.00
2013,07,15,07,20,17.00
2013,07,15,07,21,17.00
2013,07,15,07,22,17.10
2013,07,15,07,23,17.10
2013,07,15,07,24,17.10
2013,07,15,07,25,17.10
2013,07,15,07,26,17.20
2013,07,15,07,27,17.20
2013,07,15,07,28,17.20
2013,07,15,07,29,17.20
2013,07,15,07,30,17.20
2013,07,15,07,31,17.20
2013,07,15,07,32,17.30
2013,07,15,07,33,17.30
2013,07,15,07,34,17.30
2013,07,15,07,35,17.30
2013,07,15,07,36,17.30
2013,07,15,07,37,17.40
2013,07,15,07,38,17.40
2013,07,15,07,39,17.40
2013,07,15,07,40,17.40
2013,07,15,07,41,17.40
2013,07,15,07,42,17.40
2013,07,15,07,43,17.40
2013,07,15,07,44,17.40
2013,07,15,07,45,17.30
2013,07,15,07,46,17.30
2013,07,15,07,47,17.30
2013,07,15,07,48,17.40
2013,07,15,07,49,17.40
2013,07,15,07,50,17.40
2013,07,15,07,51,17.50
2013,07,15,07,52,17.50
2013,07,15,07,53,17.50
2013,07,15,07,54,17.60
2013,07,15,07,55,17.60
2013,07,15,07,56,17.60
2013,07,15,07,57,17.70
2013,07,15,07,58,17.70
2013,07,15,07,59,17.70
2013,07,15,08,00,17.70
2013,07,15,08,01,17.70
2013,07,15,08,02,17.70
2013,07,15,08,03,17.70
2013,07,15,08,04,17.70
2013,07,15,08,05,17.70
2013,07,15,08,06,17.70
2013,07,15,08,07,17.70
2013,07,15,08,08,17.70
2013,07,15,08,09,17.70
2013,07,15,08,10,17.80
2013,07,15,08,11,17.80
2013,07,15,08,12,17.80
2013,07,15,08,13,17.80
2013,07,15,08,14,17.90
2013,07,15,08,15,17.90
2013,07,15,08,16,17.90
2013,07,15,08,17,17.90
2013,07,15,08,18,17.90
2013,07,15,08,19,18.00
2013,07,15,08,20,17.90
2013,07,15,08,21,18.00
2013,07,15,08,22,18.00
2013,07,15,08,23,18.00
2013,07,15,08,24,18.10
2013,07,15,08,25,18.10
2013,07,15,08,26,18.10
2013,07,15,08,27,18.10
2013,07,15,08,28,18.20
2013,07,15,08,29,18.20
2013,07,15,08,30,18.10
2013,07,15,08,31,18.10
2013,07,15,08,32,18.00
2013,07,15,08,33,18.00
2013,07,15,08,34,17.90
2013,07,15,08,35,17.90
2013,07,15,08,36,17.90
2013,07,15,08,37,17.80
2013,07,15,08,38,17.80
2013,07,15,08,39,17.80
2013,07,15,08,40,17.80
2013,07,15,08,41,17.80
2013,07,15,08,42,17.90
2013,07,15,08,43,17.90
2013,07,15,08,44,17.90
2013,07,15,08,45,17.90
2013,07,15,08,46,17.90
2013,07,15,08,47,17.90
2013,07,15,08,48,17.90
2013,07,15,08,49,17.90
2013,07,15,08,50,17.90
2013,07,15,08,51,18.00
2013,07,15,08,52,18.00
2013,07,15,08,53,18.00
2013,07,15,08,54,18.00
2013,07,15,08,55,18.00
2013,07,15,08,56,18.00
2013,07,15,08,57,18.10
2013,07,15,08,58,18.20
2013,07,15,08,59,18.20
2013,07,15,09,00,18.20
2013,07,15,09,01,18.20
2013,07,15,09,02,18.30
2013,07,15,09,03,18.30
2013,07,15,09,04,18.30
2013,07,15,09,05,18.30
2013,07,15,09,06,18.30
2013,07,15,09,07,18.30
2013,07,15,09,08,18.30
2013,07,15,09,09,18.30
2013,07,15,09,10,18.30
2013,07,15,09,11,18.30
2013,07,15,09,12,18.30
2013,07,15,09,13,18.30
2013,07,15,09,14,18.30
2013,07,15,09,15,18.40
2013,07,15,09,16,18.40
2013,07,15,09,17,18.50
2013,07,15,09,18,18.50
2013,07,15,09,19,18.60
2013,07,15,09,20,18.60
2013,07,15,09,21,18.70
2013,07,15,09,22,18.80
2013,07,15,09,23,18.90
2013,07,15,09,24,18.90
2013,07,15,09,25,18.90
2013,07,15,09,26,19.00
2013,07,15,09,27,19.00
2013,07,15,09,28,19.10
2013,07,15,09,29,19.10
2013,07,15,09,30,19.20
2013,07,15,09,31,19.30
2013,07,15,09,32,19.30
2013,07,15,09,33,19.40
2013,07,15,09,34,19.40
2013,07,15,09,35,19.40
2013,07,15,09,36,19.50
2013,07,15,09,37,19.50
2013,07,15,09,38,19.50
2013,07,15,09,39,19.50
2013,07,15,09,40,19.50
2013,07,15,09,41,19.40
2013,07,15,09,42,19.40
2013,07,15,09,43,19.40
2013,07,15,09,44,19.50
2013,07,15,09,45,19.50
2013,07,15,09,46,19.60
2013,07,15,09,47,19.70
2013,07,15,09,48,19.70
2013,07,15,09,49,19.80
2013,07,15,09,50,19.80
2013,07,15,09,51,19.90
2013,07,15,09,52,19.90
2013,07,15,09,53,19.90
2013,07,15,09,54,20.00
2013,07,15,09,55,20.00
2013,07,15,09,56,20.00
2013,07,15,09,57,20.10
2013,07,15,09,58,20.10
2013,07,15,09,59,20.20
2013,07,15,10,00,20.20
2013,07,15,10,01,20.10
2013,07,15,10,02,20.10
2013,07,15,10,03,20.10
2013,07,15,10,04,20.00
2013,07,15,10,05,20.00
2013,07,15,10,06,20.00
2013,07,15,10,07,20.00
2013,07,15,10,08,20.00
2013,07,15,10,09,20.10
2013,07,15,10,10,20.20
2013,07,15,10,11,20.20
2013,07,15,10,12,20.20
2013,07,15,10,13,20.20
2013,07,15,10,14,20.20
2013,07,15,10,15,20.20
2013,07,15,10,16,20.30
2013,07,15,10,17,20.30
2013,07,15,10,18,20.30
2013,07,15,10,19,20.30
2013,07,15,10,20,20.30
2013,07,15,10,21,20.30
2013,07,15,10,22,20.30
2013,07,15,10,23,20.30
2013,07,15,10,24,20.30
2013,07,15,10,25,20.30
2013,07,15,10,26,20.30
2013,07,15,10,27,20.30
2013,07,15,10,28,20.30
2013,07,15,10,29,20.30
2013,07,15,10,30,20.40
2013,07,15,10,31,20.40
2013,07,15,10,32,20.50
2013,07,15,10,33,20.50
2013,07,15,10,34,20.60
2013,07,15,10,35,20.50
2013,07,15,10,36,20.50
2013,07,15,10,37,20.60
2013,07,15,10,38,20.60
2013,07,15,10,39,20.60
2013,07,15,10,40,20.60
2013,07,15,10,41,20.60
2013,07,15,10,42,20.60
2013,07,15,10,43,20.60
2013,07,15,10,44,20.60
2013,07,15,10,45,20.60
2013,07,15,10,46,20.60
2013,07,15,10,47,20.70
2013,07,15,10,48,20.70
2013,07,15,10,49,20.60
2013,07,15,10,50,20.60
2013,07,15,10,51,20.60
2013,07,15,10,52,20.60
2013,07,15,10,53,20.50
2013,07,15,10,54,20.50
2013,07,15,10,55,20.50
2013,07,15,10,56,20.60
2013,07,15,10,57,20.60
2013,07,15,10,58,20.60
2013,07,15,10,59,20.60
2013,07,15,11,00,20.60
2013,07,15,11,01,20.60
2013,07,15,11,02,20.70
2013,07,15,11,03,20.80
2013,07,15,11,04,20.80
2013,07,15,11,05,20.80
2013,07,15,11,06,20.90
2013,07,15,11,07,21.00
2013,07,15,11,08,21.10
2013,07,15,11,09,21.10
2013,07,15,11,10,21.20
2013,07,15,11,11,21.30
2013,07,15,11,12,21.30
2013,07,15,11,13,21.50
2013,07,15,11,14,21.50
2013,07,15,11,15,21.60
2013,07,15,11,16,21.70
2013,07,15,11,17,21.80
2013,07,15,11,18,21.70
2013,07,15,11,19,21.50
2013,07,15,11,20,21.40
2013,07,15,11,21,21.30
2013,07,15,11,22,21.30
2013,07,15,11,23,21.30
2013,07,15,11,24,21.30
2013,07,15,11,25,21.30
2013,07,15,11,26,21.40
2013,07,15,11,27,21.40
2013,07,15,11,28,21.40
2013,07,15,11,29,21.40
2013,07,15,11,30,21.30
2013,07,15,11,31,21.40
2013,07,15,11,32,21.40
2013,07,15,11,33,21.40
2013,07,15,11,34,21.40
2013,07,15,11,35,21.30
2013,07,15,11,36,21.30
2013,07,15,11,37,21.20
2013,07,15,11,38,21.30
2013,07,15,11,39,21.30
2013,07,15,11,40,21.30
2013,07,15,11,41,21.40
2013,07,15,11,42,21.40
2013,07,15,11,43,21.40
2013,07,15,11,44,21.30
2013,07,15,11,45,21.30
2013,07,15,11,46,21.30
2013,07,15,11,47,21.20
2013,07,15,11,48,21.20
2013,07,15,11,49,21.20
2013,07,15,11,50,21.20
2013,07,15,11,51,21.20
2013,07,15,11,52,21.20
2013,07,15,11,53,21.20
2013,07,15,11,54,21.20
2013,07,15,11,55,21.30
2013,07,15,11,56,21.30
2013,07,15,11,57,21.30
2013,07,15,11,58,21.40
2013,07,15,11,59,21.40
2013,07,15,12,00,21.60
2013,07,15,12,01,21.60
2013,07,15,12,02,21.60
2013,07,15,12,03,21.60
2013,07,15,12,04,21.60
2013,07,15,12,05,21.60
2013,07,15,12,06,21.60
2013,07,15,12,07,21.70
2013,07,15,12,08,21.70
2013,07,15,12,09,21.70
2013,07,15,12,10,21.70
2013,07,15,12,11,21.70
2013,07,15,12,12,21.60
2013,07,15,12,13,21.60
2013,07,15,12,14,21.70
2013,07,15,12,15,21.70
2013,07,15,12,16,21.70
2013,07,15,12,17,21.70
2013,07,15,12,18,21.80
2013,07,15,12,19,21.80
2013,07,15,12,20,21.80
2013,07,15,12,21,21.80
2013,07,15,12,22,21.80
2013,07,15,12,23,21.80
2013,07,15,12,24,21.80
2013,07,15,12,25,21.80
2013,07,15,12,26,21.80
2013,07,15,12,27,21.70
2013,07,15,12,28,21.70
2013,07,15,12,29,21.70
2013,07,15,12,30,21.80
2013,07,15,12,31,21.80
2013,07,15,12,32,21.70
2013,07,15,12,33,21.70
2013,07,15,12,34,21.80
2013,07,15,12,35,21.80
2013,07,15,12,36,21.90
2013,07,15,12,37,21.90
2013,07,15,12,38,21.80
2013,07,15,12,39,21.80
2013,07,15,12,40,21.90
2013,07,15,12,41,22.00
2013,07,15,12,42,22.00
2013,07,15,12,43,22.10
2013,07,15,12,44,22.20
2013,07,15,12,45,22.30
2013,07,15,12,46,22.20
2013,07,15,12,47,22.30
2013,07,15,12,48,22.30
2013,07,15,12,49,22.30
2013,07,15,12,50,22.40
2013,07,15,12,51,22.40
2013,07,15,12,52,22.50
2013,07,15,12,53,22.50
2013,07,15,12,54,22.40
2013,07,15,12,55,22.30
2013,07,15,12,56,22.30
2013,07,15,12,57,22.30
2013,07,15,12,58,22.30
2013,07,15,12,59,22.40
2013,07,15,13,00,22.40
2013,07,15,13,01,22.40
2013,07,15,13,02,22.40
2013,07,15,13,03,22.40
2013,07,15,13,04,22.50
2013,07,15,13,05,22.50
2013,07,15,13,06,22.50
2013,07,15,13,07,22.50
2013,07,15,13,08,22.60
2013,07,15,13,09,22.60
2013,07,15,13,10,22.70
2013,07,15,13,11,22.70
2013,07,15,13,12,22.70
2013,07,15,13,13,22.70
2013,07,15,13,14,22.60
2013,07,15,13,15,22.60
2013,07,15,13,16,22.60
2013,07,15,13,17,22.60
2013,07,15,13,18,22.50
2013,07,15,13,19,22.60
2013,07,15,13,20,22.60
2013,07,15,13,21,22.60
2013,07,15,13,22,22.60
2013,07,15,13,23,22.60
2013,07,15,13,24,22.60
2013,07,15,13,25,22.70
2013,07,15,13,26,22.70
2013,07,15,13,27,22.70
2013,07,15,13,28,22.70
2013,07,15,13,29,22.80
2013,07,15,13,30,23.00
2013,07,15,13,31,23.10
2013,07,15,13,32,23.20
2013,07,15,13,33,23.20
2013,07,15,13,34,23.20
2013,07,15,13,35,23.30
2013,07,15,13,36,23.30
2013,07,15,13,37,23.40
2013,07,15,13,38,23.40
2013,07,15,13,39,23.40
2013,07,15,13,40,23.30
2013,07,15,13,41,23.30
2013,07,15,13,42,23.30
2013,07,15,13,43,23.30
2013,07,15,13,44,23.40
2013,07,15,13,45,23.40
2013,07,15,13,46,23.40
2013,07,15,13,47,23.50
2013,07,15,13,48,23.50
2013,07,15,13,49,23.50
2013,07,15,13,50,23.50
2013,07,15,13,51,23.50
2013,07,15,13,52,23.50
2013,07,15,13,53,23.60
2013,07,15,13,54,23.70
2013,07,15,13,55,23.80
2013,07,15,13,56,23.70
2013,07,15,13,57,23.70
2013,07,15,13,58,23.60
2013,07,15,13,59,23.50
2013,07,15,14,00,23.40
2013,07,15,14,01,23.30
2013,07,15,14,02,23.20
2013,07,15,14,03,23.20
2013,07,15,14,04,23.30
2013,07,15,14,05,23.40
2013,07,15,14,06,23.50
2013,07,15,14,07,23.50
2013,07,15,14,08,23.60
2013,07,15,14,09,23.60
2013,07,15,14,10,23.60
2013,07,15,14,11,23.60
2013,07,15,14,12,23.60
2013,07,15,14,13,23.70
2013,07,15,14,14,23.70
2013,07,15,14,15,23.70
2013,07,15,14,16,23.70
2013,07,15,14,17,23.80
2013,07,15,14,18,23.70
2013,07,15,14,19,23.70
2013,07,15,14,20,23.80
2013,07,15,14,21,23.80
2013,07,15,14,22,23.90
2013,07,15,14,23,23.90
2013,07,15,14,24,24.00
2013,07,15,14,25,24.00
2013,07,15,14,26,24.10
2013,07,15,14,27,24.20
2013,07,15,14,28,24.20
2013,07,15,14,29,24.20
2013,07,15,14,30,24.30
2013,07,15,14,31,24.30
2013,07,15,14,32,24.30
2013,07,15,14,33,24.30
2013,07,15,14,34,24.30
2013,07,15,14,35,24.30
2013,07,15,14,36,24.30
2013,07,15,14,37,24.20
2013,07,15,14,38,24.20
2013,07,15,14,39,24.20
2013,07,15,14,40,24.30
2013,07,15,14,41,24.30
2013,07,15,14,42,24.50
2013,07,15,14,43,24.50
2013,07,15,14,44,24.60
2013,07,15,14,45,24.60
2013,07,15,14,46,24.50
2013,07,15,14,47,24.40
2013,07,15,14,48,24.40
2013,07,15,14,49,24.40
2013,07,15,14,50,24.40
2013,07,15,14,51,24.40
2013,07,15,14,52,24.50
2013,07,15,14,53,24.50
2013,07,15,14,54,24.60
2013,07,15,14,55,24.60
2013,07,15,14,56,24.60
2013,07,15,14,57,24.60
2013,07,15,14,58,24.60
2013,07,15,14,59,24.70
2013,07,15,15,00,24.70
2013,07,15,15,01,24.80
2013,07,15,15,02,24.80
2013,07,15,15,03,24.80
2013,07,15,15,04,24.90
2013,07,15,15,05,24.90
2013,07,15,15,06,25.10
2013,07,15,15,07,25.00
2013,07,15,15,08,24.90
2013,07,15,15,09,25.00
2013,07,15,15,10,25.10
2013,07,15,15,11,25.10
2013,07,15,15,12,25.10
2013,07,15,15,13,25.10
2013,07,15,15,14,25.00
2013,07,15,15,15,25.00
2013,07,15,15,16,24.90
2013,07,15,15,17,24.90
2013,07,15,15,18,24.80
2013,07,15,15,19,24.80
2013,07,15,15,20,24.90
2013,07,15,15,21,24.90
2013,07,15,15,22,24.80
2013,07,15,15,23,24.80
2013,07,15,15,24,24.80
2013,07,15,15,25,24.80
2013,07,15,15,26,24.80
2013,07,15,15,27,24.90
2013,07,15,15,28,25.00
2013,07,15,15,29,25.00
2013,07,15,15,30,25.10
2013,07,15,15,31,25.10
2013,07,15,15,32,25.10
2013,07,15,15,33,25.20
2013,07,15,15,34,25.20
2013,07,15,15,35,25.10
2013,07,15,15,36,25.10
2013,07,15,15,37,25.10
2013,07,15,15,38,25.10
2013,07,15,15,39,25.10
2013,07,15,15,40,25.10
2013,07,15,15,41,25.20
2013,07,15,15,42,25.20
2013,07,15,15,43,25.10
2013,07,15,15,44,25.10
2013,07,15,15,45,25.00
2013,07,15,15,46,25.00
2013,07,15,15,47,24.90
2013,07,15,15,48,24.90
2013,07,15,15,49,24.90
2013,07,15,15,50,24.90
2013,07,15,15,51,25.00
2013,07,15,15,52,25.10
2013,07,15,15,53,25.10
2013,07,15,15,54,25.10
2013,07,15,15,55,25.20
2013,07,15,15,56,25.20
2013,07,15,15,57,25.20
2013,07,15,15,58,25.20
2013,07,15,15,59,25.20
2013,07,15,16,00,25.20
2013,07,15,16,01,25.20
2013,07,15,16,02,25.30
2013,07,15,16,03,25.50
2013,07,15,16,04,25.60
2013,07,15,16,05,25.60
2013,07,15,16,06,25.50
2013,07,15,16,07,25.50
2013,07,15,16,08,25.50
2013,07,15,16,09,25.40
2013,07,15,16,10,25.40
2013,07,15,16,11,25.40
2013,07,15,16,12,25.40
2013,07,15,16,13,25.40
2013,07,15,16,14,25.50
2013,07,15,16,15,25.60
2013,07,15,16,16,25.70
2013,07,15,16,17,25.80
2013,07,15,16,18,25.80
2013,07,15,16,19,25.70
2013,07,15,16,20,25.70
2013,07,15,16,21,25.70
2013,07,15,16,22,25.70
2013,07,15,16,23,25.80
2013,07,15,16,24,25.80
2013,07,15,16,25,25.70
2013,07,15,16,26,25.70
2013,07,15,16,27,25.70
2013,07,15,16,28,25.70
2013,07,15,16,29,25.60
2013,07,15,16,30,25.60
2013,07,15,16,31,25.60
2013,07,15,16,32,25.60
2013,07,15,16,33,25.60
2013,07,15,16,34,25.60
2013,07,15,16,35,25.60
2013,07,15,16,36,25.70
2013,07,15,16,37,25.70
2013,07,15,16,38,25.60
2013,07,15,16,39,25.60
2013,07,15,16,40,25.60
2013,07,15,16,41,25.60
2013,07,15,16,42,25.60
2013,07,15,16,43,25.70
2013,07,15,16,44,25.70
2013,07,15,16,45,25.70
2013,07,15,16,46,25.70
2013,07,15,16,47,25.70
2013,07,15,16,48,25.60
2013,07,15,16,49,25.60
2013,07,15,16,50,25.60
2013,07,15,16,51,25.60
2013,07,15,16,52,25.60
2013,07,15,16,53,25.60
2013,07,15,16,54,25.60
2013,07,15,16,55,25.60
2013,07,15,16,56,25.60
2013,07,15,16,57,25.60
2013,07,15,16,58,25.60
2013,07,15,16,59,25.60
2013,07,15,17,00,25.60
2013,07,15,17,01,25.60
2013,07,15,17,02,25.60
2013,07,15,17,03,25.50
2013,07,15,17,04,25.50
2013,07,15,17,05,25.50
2013,07,15,17,06,25.40
2013,07,15,17,07,25.50
2013,07,15,17,08,25.40
2013,07,15,17,09,25.40
2013,07,15,17,10,25.40
2013,07,15,17,11,25.40
2013,07,15,17,12,25.40
2013,07,15,17,13,25.50
2013,07,15,17,14,25.50
2013,07,15,17,15,25.60
2013,07,15,17,16,25.60
2013,07,15,17,17,25.60
2013,07,15,17,18,25.60
2013,07,15,17,19,25.60